Tracking 18980 objects as of 21-Feb-2018
HD Live streaming from Space Station
objects crossing your sky now

GGSE 1 (GGRS)

Track GGSE 1 (GGRS) now!
10-day predictions
GGSE 1 (GGRS) is classified as:


NORAD ID: 728
Int'l Code: 1964-001B
Perigee: 899.3 km
Apogee: 922.6 km
Inclination: 69.9 °
Period: 103.1 minutes
Semi major axis: 7281 km
RCS: 0.3887 m2 (medium)
Launch date: January 11, 1964
Source: United States (US)
Launch site: AIR FORCE WESTERN TEST RANGE (AFWTR)
aabbcc
Your satellite tracking list
Your tracking list is empty




NASA's NSSDC Master Catalog

Two Line Element Set (TLE):
1   728U 64001B   18051.95316944 -.00000029 +00000-0 +17780-4 0  9993
2   728 069.9053 261.9273 0016007 293.6316 066.3108 13.97105484755244
Source of the keplerian elements: AFSPC